Location: Memphis International Airport Police
(35.0443°N, 89.9815°W)
Time: 05:01:16
(UTC+00:00)

Meteor 2-12 Rocket - Pass Details

Date: 26 September 2023
Orbit: 935 x 957 km, 82.5° (Epoch: 10 December)

Event Time Altitude Azimuth Distance (km) Brightness Sun altitude
Exits shadow 09:42:53 42° 185° (S) 1,330 5.0 -26.6°
Maximum altitude 09:45:08 90° 294° (WNW) 961 4.3 -26.1°
Drops below altitude 10° 09:51:19 10° 7° (N) 2,694 7.1 -24.9°
Sets 09:53:50 0° 7° (N) 3,644 7.8 -24.5°
